Tracking 17857 objects as of 30-September-2016
HD Live streaming from Space Station
objects crossing your sky now

COSMOS 2230

Track COSMOS 2230 now!
10-day predictions
COSMOS 2230 is classified as:


NORAD ID: 22307
Int'l Code: 1993-001A
Perigee: 976.6 km
Apogee: 1,011.5 km
Inclination: 82.9 °
Period: 104.8 minutes
Semi major axis: 7365 km
RCS: 1.5931 m2 (large)
Launch date: January 12, 1993
Source: Commonwealth of Independent States (former USSR) (CIS)
Launch site: PLESETSK MISSILE AND SPACE COMPLEX (PKMTR)
Your satellite tracking list
Your tracking list is empty





NASA's NSSDC Master Catalog

Two Line Element Set (TLE):
1 22307U 93001A   16272.90047322 +.00000028 +00000-0 +13705-4 0  9992
2 22307 082.9436 031.5694 0023691 323.0754 155.1622 13.73530332179943
Source of the keplerian elements: AFSPC

N2YO: 973